Simultaneous Nadir Overpasses (SNOs) Predictions

Prediction of SNOs between GOES-17 and METOP-C Satellite Orbit:

Table of predicted SNOs for the next 14.0 days since TLE Epoch: 2/3/2024
Index Date Time (GOES-17) GOES-17 Lat,Lon METOP-C Lat,Lon Distance(km) Time Diff (sec)
1 02/04/2024 04:37:30 -0.01,-104.68 -0.45,-106.58 216.17 80
2 02/05/2024 04:14:11 -0.01,-104.68 0.70,-101.59 353.32 80
3 02/06/2024 16:33:00 0.01,-104.69 0.33,-106.14 164.55 80
4 02/07/2024 16:15:00 0.02,-104.69 -0.77,-101.13 405.04 80
5 02/09/2024 04:34:00 -0.02,-104.68 -0.24,-105.73 119.61 80
6 02/10/2024 04:10:40 -0.03,-104.68 0.86,-100.73 449.93 80
7 02/11/2024 16:29:29 0.02,-104.69 0.16,-105.28 67.84 80
8 02/14/2024 04:30:29 -0.03,-104.69 -0.05,-104.88 21.91 80
9 02/16/2024 16:28:37 0.02,-104.69 -0.05,-104.43 29.90 80
